Lexington Weather

Lexington, Massachusetts, USA

78°F
7/25/2024 1:02pm 
  • Lexington Conditions: Mostly cloudy
  • Temperature: 78.3°F / 25.7°CWarmer 0.6°F than last hour.
  • Dew Point: 72.7°FIncreased 0.2°Fsince last hour.
  • Relative Humidity: 83%Decreased 1.0% since last hour.
  • Wind: Wind from SE SE 1 mph, 10-min avg: 2 mph, gust: 7 mph
  • Barometer: 29.92 inFalling 0.02  inHg/hr Falling Slowly
  • Visibility: 10 miles
  • Rain Today: 0.00 in
  •   

Regional Weather Roundup
for Boston, MA

        
000
ASUS41 KBOX 231210
RWRBOX

REGIONAL WEATHER ROUNDUP
NATIONAL WEATHER SERVICE BOSTON/NORTON MA
800 AM EDT TUE JUL 23 2024

NOTE:  "FAIR" INDICATES FEW OR NO CLOUDS BELOW 12,000 FEET WITH NO 
SIGNIFICANT WEATHER AND/OR OBSTRUCTIONS TO VISIBILITY.

MAZALL-231300-
EASTERN MASSACHUSETTS
  
CITY           SKY/WX    TMP DP  RH WIND       PRES   REMARKS
BOSTON         CLOUDY    69  67  93 S7        30.03S                  
6HR MIN TEMP:  67; 6HR MAX TEMP:  71; 6HR PCP:  0.01;                

BEVERLY        CLOUDY    71  69  93 S8        30.01S                  
LAWRENCE       CLOUDY    72  69  90 S5        30.04R                  
BEDFORD        CLOUDY    71  68  90 SW3       30.01S                  
NORWOOD        CLOUDY    73  70  90 SE5       30.03S                  
MARSHFIELD     PTSUNNY   68  66  94 CALM      30.03S FOG              
PLYMOUTH       LGT RAIN  68  66  93 CALM      30.03R FOG              
TAUNTON        LGT RAIN  70  66  87 E5        30.03R FOG              
NEW BEDFORD    CLOUDY    70  68  93 NE7       30.01S                  
$$

MAZALL-231300-
CAPE COD AND THE ISLANDS
  
CITY           SKY/WX    TMP DP  RH WIND       PRES   REMARKS
FALMOUTH       LGT RAIN  66  66 100 NE8       30.03R VSB 1            
HYANNIS        LGT RAIN  67  67 100 NE6       30.01R FOG              
CHATHAM        LGT RAIN  68  66  93 NE8       30.02S FOG              
PROVINCETOWN   LGT RAIN  67  67 100 E5        30.04S FOG              
NANTUCKET      CLOUDY    66  66 100 NE10      30.00S FOG              
MARTHAS VNYRD  LGT RAIN  68  66  93 NE10      30.01R FOG              
$$
 
MAZALL-231300-
CENTRAL AND WESTERN MASSACHUSETTS
  
CITY           SKY/WX    TMP DP  RH WIND       PRES   REMARKS
WORCESTER      CLOUDY    69  67  93 CALM      30.06R                  
6HR MIN TEMP:  68; 6HR MAX TEMP:  72; 6HR PCP:  0.10;                

FITCHBURG      CLOUDY    71  69  93 SW3       30.04R                  
ORANGE         LGT RAIN  68  66  93 CALM      30.06R FOG              
SPRINGFIELD    CLOUDY    69  66  93 CALM      30.00R                  
WESTFIELD      CLOUDY    69  67  93 CALM      30.02R                  
NORTH ADAMS    CLOUDY    67  65  93 W5        30.05R                  
PITTSFIELD     LGT RAIN  66  64  93 CALM      30.05R                  
$$
 
RIZALL-231300-
RHODE ISLAND
  
CITY           SKY/WX    TMP DP  RH WIND       PRES   REMARKS
PROVIDENCE     LGT RAIN  68  68 100 NE6       30.03R FOG              
6HR MIN TEMP:  68; 6HR MAX TEMP:  74; 6HR PCP:  0.04;                

NEWPORT        CLOUDY    68  67  96 NE8       30.02R                  
BLOCK ISLAND   CLOUDY    66  66 100 NE7         N/A  FOG              
SMITHFIELD     LGT RAIN  68  68 100 VRB3      30.04S FOG              
WESTERLY       CLOUDY    69  66  90 NE7       30.01R                  
$$
 
CTZALL-231300-
CONNECTICUT
  
CITY           SKY/WX    TMP DP  RH WIND       PRES   REMARKS
BRADLEY INTL   CLOUDY    72  67  84 N5        30.02R                  
6HR MIN TEMP:  70; 6HR MAX TEMP:  76; 6HR PCP:  0.11;                

HARTFORD       CLOUDY    72  69  90 NE3       30.00S                  
PLAINVILLE     CLOUDY    70  69  98 N3        30.01S                  
BRIDGEPORT     CLOUDY    73  69  87 E12       29.99R                  
DANBURY        CLOUDY    71  67  87 NE3       30.02R                  
GROTON         CLOUDY    70  68  93 E9        30.01R                  
NEW HAVEN      CLOUDY    74  70  87 SE6       30.00R                  
CHESTER        CLOUDY    70  70 100 CALM      30.02R                  
MERIDEN        CLOUDY    72  67  84 NE3       30.01R                  
WILLIMANTIC    CLOUDY    69  67  93 NE5       30.02R                  
OXFORD         CLOUDY    68  68 100 E5        30.03R FOG              
$$

MEZ002-015-021-024-NHZ003-005-008-011-012-014-VTZ005-008-231300-
NORTHERN NEW ENGLAND
  
CITY           SKY/WX    TMP DP  RH WIND       PRES   REMARKS
PORTLAND ME    HVY RAIN  66  66 100 NE3       30.06R FOG              
6HR MIN TEMP:  66; 6HR MAX TEMP:  68; 6HR PCP:  0.77;                

BANGOR ME      TSTM      63  61  93 N12G18    30.05S FOG              
CONCORD NH     LGT RAIN  69  68  96 CALM      30.02S FOG              
MANCHESTER NH  PTSUNNY   75  69  81 S9        30.01R                  
NASHUA NH      LGT RAIN  73  73 100 VRB3      30.03R                  
PORTSMOUTH NH  CLOUDY    73  68  83 CALM      30.01R                  
JAFFREY NH     CLOUDY    69  66  90 S3        30.06S                  
KEENE NH       LGT RAIN  68  66  94 CALM      30.05R                  
BURLINGTON VT  CLOUDY    69  66  90 N3        30.04R                  
MT. WASHINGTON LGT RAIN  50  50 100 NW28        N/A  VSB 1/16         
$$

NYZ052-076-231300-
EASTERN NEW YORK
  
CITY           SKY/WX    TMP DP  RH WIND       PRES   REMARKS
ALBANY         LGT RAIN  69  66  90 NE7       30.03R FOG              
6HR MIN TEMP:  69; 6HR MAX TEMP:  72; 6HR PCP:  0.08;                

NEW YORK CITY  CLOUDY    72  69  90 NE6       29.98R FOG              
6HR MIN TEMP:  70; 6HR MAX TEMP:  72; 6HR PCP:  0.07;                

$$
 
ANZALL-231300-
MARINE OBSERVATIONS
  
STATION/POSITION TIME  TEMP    WIND        PRES    VSBY  WAVE
                       AIR SEA DIR/SP/G                  HT/PER
                 (UTC) (F)     (DEG/KT/KT) (MB)    (MI)  (FT/S)
BOSTON BUOY      1140   67 66  170/ 12/ 14 1017.3R
BUZZARDS BAY     1100   67      50/ 13/ 14 1015.9R
NANTUCKET SOUND  1150   68 76   80/ 16/ 17 1015.8R         2/ 3
MASS BAY-STELLWA 1004   67 63  170/  6/  6 1016.8S  1 7/8  1/11
ISLE OF SHOALS   1100   70     180/ 19/ 19 1015.6S
S OF BLOCK IS    1156      74                N/A           4/ 5
$$

......................KEY.........................
  SKY/WX - SKY CONDITION/PRESENT WEATHER
  TMP    - TEMPERATURE IN FAHRENHEIT
  DWPT   - DEWPOINT IN FAHRENHEIT
  RH     - RELATIVE HUMIDITY IN PERCENT
  WIND   - DIRECTION AND SPEED IN MPH
  PRES   - MEAN SEA LEVEL PRESSURE IN INCHES OF HG
  WCI    - WIND CHILL INDEX
  VSB    - VISIBILITY IN MILES
  HX     - HEAT INDEX
  TC     - TEMPERATURE IN CELSIUS
  VRB    - VARIABLE WIND DIRECTION
  N/A    - NOT AVAILABLE
  
      

Other recent Regional Weather Roundups

Thu Jul 25, 12:10pm EDT

Thu Jul 25, 11:10am EDT

Thu Jul 25, 10:10am EDT

Thu Jul 25, 9:10am EDT

Thu Jul 25, 8:10am EDT

Thu Jul 25, 7:10am EDT

Thu Jul 25, 6:10am EDT

Thu Jul 25, 5:10am EDT

Thu Jul 25, 4:10am EDT

Thu Jul 25, 3:10am EDT

Thu Jul 25, 2:10am EDT

Thu Jul 25, 1:10am EDT

Thu Jul 25, 12:10am EDT

Wed Jul 24, 11:10pm EDT

Wed Jul 24, 10:10pm EDT

Wed Jul 24, 9:10pm EDT

Wed Jul 24, 8:10pm EDT

Wed Jul 24, 7:10pm EDT

Wed Jul 24, 6:10pm EDT

Wed Jul 24, 5:10pm EDT

Wed Jul 24, 4:10pm EDT

Wed Jul 24, 3:10pm EDT

Wed Jul 24, 2:10pm EDT

Wed Jul 24, 1:10pm EDT

Wed Jul 24, 12:10pm EDT

Wed Jul 24, 11:10am EDT

Wed Jul 24, 10:10am EDT

Wed Jul 24, 9:10am EDT

Wed Jul 24, 8:10am EDT

Wed Jul 24, 7:10am EDT

Wed Jul 24, 6:10am EDT

Wed Jul 24, 5:10am EDT

Wed Jul 24, 4:10am EDT

Wed Jul 24, 3:10am EDT

Wed Jul 24, 2:10am EDT

Wed Jul 24, 1:10am EDT

Wed Jul 24, 12:10am EDT

Tue Jul 23, 11:10pm EDT

Tue Jul 23, 10:10pm EDT

Tue Jul 23, 9:10pm EDT

Tue Jul 23, 8:10pm EDT

Tue Jul 23, 7:10pm EDT

Tue Jul 23, 6:10pm EDT

Tue Jul 23, 5:10pm EDT

Tue Jul 23, 4:10pm EDT

Tue Jul 23, 3:10pm EDT

Tue Jul 23, 2:10pm EDT

Tue Jul 23, 1:10pm EDT

Tue Jul 23, 12:10pm EDT

Tue Jul 23, 11:10am EDT

Tue Jul 23, 10:10am EDT

Tue Jul 23, 10:10am EDT

Tue Jul 23, 9:10am EDT

Tue Jul 23, 7:10am EDT

Tue Jul 23, 6:10am EDT

Tue Jul 23, 5:10am EDT

Tue Jul 23, 4:10am EDT

Tue Jul 23, 3:10am EDT

Tue Jul 23, 2:10am EDT

Tue Jul 23, 1:10am EDT

Tue Jul 23, 12:10am EDT

Mon Jul 22, 11:10pm EDT

Mon Jul 22, 10:10pm EDT

Mon Jul 22, 9:10pm EDT

Mon Jul 22, 8:10pm EDT

Mon Jul 22, 7:10pm EDT

Mon Jul 22, 6:10pm EDT

Mon Jul 22, 5:10pm EDT

Mon Jul 22, 4:10pm EDT

Mon Jul 22, 3:10pm EDT

Mon Jul 22, 2:10pm EDT

Mon Jul 22, 1:10pm EDT

Mon Jul 22, 12:10pm EDT

Mon Jul 22, 11:10am EDT

Mon Jul 22, 10:10am EDT

Mon Jul 22, 9:10am EDT

Mon Jul 22, 8:10am EDT

Mon Jul 22, 7:10am EDT

Mon Jul 22, 6:10am EDT

Mon Jul 22, 5:10am EDT

Mon Jul 22, 4:10am EDT

Mon Jul 22, 3:10am EDT

Mon Jul 22, 2:10am EDT

Mon Jul 22, 1:10am EDT

Mon Jul 22, 12:10am EDT

Sun Jul 21, 11:10pm EDT

Sun Jul 21, 10:10pm EDT

Sun Jul 21, 9:10pm EDT

Sun Jul 21, 8:10pm EDT

Sun Jul 21, 7:10pm EDT

Sun Jul 21, 6:10pm EDT

Sun Jul 21, 5:10pm EDT

Sun Jul 21, 4:10pm EDT

Sun Jul 21, 3:10pm EDT

Sun Jul 21, 2:10pm EDT

Sun Jul 21, 1:10pm EDT

Sun Jul 21, 12:10pm EDT

Sun Jul 21, 11:10am EDT

Sun Jul 21, 10:10am EDT

Sun Jul 21, 9:10am EDT

Sun Jul 21, 8:10am EDT

Sun Jul 21, 7:10am EDT

Sun Jul 21, 6:10am EDT

Sun Jul 21, 5:10am EDT

Sun Jul 21, 4:10am EDT

Sun Jul 21, 3:10am EDT

Sun Jul 21, 2:10am EDT

Sun Jul 21, 1:10am EDT

Sun Jul 21, 12:10am EDT

Sat Jul 20, 11:10pm EDT

Sat Jul 20, 10:10pm EDT

Sat Jul 20, 9:10pm EDT

Sat Jul 20, 8:10pm EDT

Sat Jul 20, 7:10pm EDT

Sat Jul 20, 6:10pm EDT

Sat Jul 20, 5:10pm EDT

Sat Jul 20, 4:10pm EDT

Sat Jul 20, 3:10pm EDT

Sat Jul 20, 2:10pm EDT

Sat Jul 20, 1:10pm EDT

Sat Jul 20, 12:10pm EDT

Sat Jul 20, 11:10am EDT

Sat Jul 20, 10:10am EDT

Sat Jul 20, 9:10am EDT

Sat Jul 20, 8:10am EDT

Sat Jul 20, 7:10am EDT

Sat Jul 20, 6:10am EDT

Sat Jul 20, 5:10am EDT

Sat Jul 20, 4:10am EDT

Sat Jul 20, 3:10am EDT

Sat Jul 20, 2:10am EDT

Sat Jul 20, 1:10am EDT

Sat Jul 20, 12:10am EDT

Fri Jul 19, 11:10pm EDT

Fri Jul 19, 10:10pm EDT

Fri Jul 19, 9:10pm EDT

Fri Jul 19, 8:10pm EDT

Fri Jul 19, 7:10pm EDT

Fri Jul 19, 6:10pm EDT

Fri Jul 19, 5:10pm EDT

Fri Jul 19, 4:10pm EDT

Fri Jul 19, 3:10pm EDT

Fri Jul 19, 2:10pm EDT

Fri Jul 19, 1:10pm EDT

Fri Jul 19, 12:10pm EDT

Fri Jul 19, 11:10am EDT

Fri Jul 19, 10:10am EDT

Fri Jul 19, 9:10am EDT

Fri Jul 19, 8:10am EDT

Fri Jul 19, 7:10am EDT

Fri Jul 19, 6:10am EDT

Fri Jul 19, 5:10am EDT

Fri Jul 19, 4:10am EDT

Fri Jul 19, 3:10am EDT

Fri Jul 19, 2:10am EDT

Fri Jul 19, 1:10am EDT

Fri Jul 19, 12:10am EDT

Thu Jul 18, 11:10pm EDT

Thu Jul 18, 10:10pm EDT

Thu Jul 18, 9:10pm EDT

Thu Jul 18, 8:10pm EDT

Thu Jul 18, 7:10pm EDT

Thu Jul 18, 6:10pm EDT

Thu Jul 18, 5:10pm EDT

Thu Jul 18, 4:10pm EDT

Thu Jul 18, 3:10pm EDT

Thu Jul 18, 2:10pm EDT

Thu Jul 18, 1:10pm EDT